Location: Peterborough
(44.3091°N, 78.3197°W)
Time: 16:31:57
(UTC-04:00)

Explorer 7 - Pass Details

Date: 28 March 2023
Orbit: 477 x 653 km, 50.3° (Epoch: 04 June)

Event Time Altitude Azimuth Distance (km) Brightness Sun altitude
Rises 18:06:07 0° 259° (W) 2,912 12.5 15.1°
Reaches altitude 10° 18:08:33 10° 264° (W) 1,981 12.6 14.6°
Maximum altitude 18:13:00 52° 342° (NNW) 743 7.8 13.9°
Drops below altitude 10° 18:17:12 10° 59° (ENE) 1,875 9.0 13.1°
Sets 18:19:26 0° 65° (ENE) 2,740 9.8 12.7°
